Change the Weather History Date:

Friday, September 13, 2013

  Actual Average Record
Temperature  
Mean Temperature 83 °F -  
Max Temperature 91 °F 91 °F 96 °F (1988)
Min Temperature 75 °F 74 °F 65 °F (1977)
Cooling Degree Days 18    
Growing Degree Days 33 (Base 50)    
Moisture  
Dew Point 73 °F    
Average Humidity 72    
Maximum Humidity 97    
Minimum Humidity 50    
Precipitation  
Precipitation 0.00 in - - ()
Sea Level Pressure  
Sea Level Pressure 29.88 in    
Wind  
Wind Speed 2 mph (SE)    
Max Wind Speed 13 mph    
Max Gust Speed -    
Visibility 10 miles    
Events      
Averages and records for this station are not official NWS values.
T = Trace of Precipitation, MM = Missing Value Source: NWS Daily Summary

Daily Weather History Graph

Daily Weather History Graph

Search for Another Location

Airport or City:

Trip Planner

Search our weather history database for the weather conditions in past years. The results will help you decide how hot, cold, wet, or windy it might be!

Date:

Astronomy

Sep. 13, 2013 Rise Set
Actual Time 7:05 AM EDT 7:26 PM EDT
Civil Twilight 6:42 AM EDT 7:50 PM EDT
Nautical Twilight 6:15 AM EDT 8:17 PM EDT
Astronomical Twilight 5:48 AM EDT 8:44 PM EDT
Moon 2:51 PM EDT (9/13) 12:58 AM EDT (9/13)
Length of Visible Light 13h 07m
Length of Day
12h 21m
First Quarter, 61% of the Moon is Illuminated
Sep 13
First Quarter
Sep 19
Full
Sep 26
Last Quarter
Oct 4
New
Oct 11
First Quarter

Hourly Weather History & Observations

Time (EDT) Temp. Heat Index Dew Point Humidity Pressure Visibility Wind Dir Wind Speed Gust Speed Precip Events Conditions
12:53 AM 79.0 °F - 73.0 °F 82% 29.91 in 10.0 mi Calm Calm - N/A   Mostly Cloudy
1:53 AM 78.1 °F - 73.9 °F 87% 29.90 in 10.0 mi Calm Calm - N/A   Clear
2:53 AM 78.1 °F - 75.0 °F 90% 29.89 in 10.0 mi Calm Calm - N/A   Clear
3:53 AM 77.0 °F - 75.0 °F 94% 29.88 in 10.0 mi NW 3.5 mph - N/A   Clear
4:53 AM 77.0 °F - 75.0 °F 94% 29.88 in 10.0 mi Calm Calm - N/A   Clear
5:53 AM 75.9 °F - 73.9 °F 94% 29.87 in 10.0 mi Calm Calm - N/A   Clear
6:53 AM 75.0 °F - 73.9 °F 96% 29.89 in 10.0 mi Calm Calm - N/A   Clear
7:53 AM 75.9 °F - 75.0 °F 97% 29.91 in 10.0 mi Calm Calm - N/A   Clear
8:53 AM 81.0 °F 87.3 °F 75.9 °F 85% 29.91 in 10.0 mi Calm Calm - N/A   Clear
9:53 AM 84.9 °F 90.7 °F 72.0 °F 65% 29.91 in 10.0 mi South 3.5 mph - N/A   Partly Cloudy
10:53 AM 86.0 °F 91.5 °F 71.1 °F 61% 29.91 in 10.0 mi Calm Calm - N/A   Scattered Clouds
11:53 AM 90.0 °F 95.4 °F 70.0 °F 52% 29.91 in 10.0 mi Calm Calm - N/A   Scattered Clouds
12:53 PM 91.0 °F 96.6 °F 70.0 °F 50% 29.89 in 10.0 mi Calm Calm - N/A   Scattered Clouds
1:53 PM 89.1 °F 96.0 °F 72.0 °F 57% 29.87 in 10.0 mi ESE 5.8 mph - N/A   Scattered Clouds
2:53 PM 90.0 °F 97.9 °F 73.0 °F 57% 29.86 in 10.0 mi ESE 10.4 mph - N/A   Scattered Clouds
3:53 PM 89.1 °F 96.0 °F 72.0 °F 57% 29.83 in 10.0 mi ESE 8.1 mph - N/A   Scattered Clouds
4:53 PM 88.0 °F 94.7 °F 72.0 °F 59% 29.83 in 10.0 mi East 12.7 mph - N/A   Scattered Clouds
5:53 PM 87.1 °F 90.6 °F 68.0 °F 53% 29.83 in 10.0 mi SE 10.4 mph - N/A   Clear
6:53 PM 84.9 °F 89.4 °F 70.0 °F 61% 29.83 in 10.0 mi SE 8.1 mph - N/A   Clear
7:53 PM 84.0 °F 89.0 °F 71.1 °F 65% 29.84 in 10.0 mi ESE 9.2 mph - N/A   Scattered Clouds
8:53 PM 84.0 °F 91.2 °F 73.9 °F 72% 29.86 in 10.0 mi SE 6.9 mph - N/A   Scattered Clouds
9:53 PM 82.9 °F 88.0 °F 72.0 °F 69% 29.87 in 10.0 mi SE 6.9 mph - N/A   Clear
10:53 PM 82.9 °F 87.5 °F 71.1 °F 67% 29.88 in 10.0 mi SSE 5.8 mph - N/A   Clear
11:53 PM 82.0 °F 87.9 °F 73.9 °F 76% 29.88 in 10.0 mi SE 3.5 mph - N/A   Clear